Regional Weather Roundup
Issued by NWS

Home | Current Version | Previous Version | Graphics & Text | Print | Product List | Glossary On
Versions: 1 2 3 4 5 6 7 8 9 10 11 12 13 14 15 16 17 18 19 20 21 22 23 24 25 26 27 28 29 30 31 32 33 34 35 36 37 38 39 40 41 42 43 44 45 46 47 48 49 50
000
ASUS43 KMPX 291410
RWRMN
WEATHER ROUNDUP FOR MINNESOTA
NATIONAL WEATHER SERVICE TWIN CITIES/CHANHASSEN MN
900 AM CDT MON MAY 29 2017


NOTE: "FAIR" INDICATES FEW OR NO CLOUDS BELOW 12,000 FEET WITH NO
SIGNIFICANT WEATHER AND/OR OBSTRUCTIONS TO VISIBILITY. N/A MEANS
CURRENT SKY AND/OR WEATHER CONDITIONS ARE NOT AVAILABLE.

MNZ060>063-068>070-291500-
   Twin Cities Metro

CITY           SKY/WX    TMP DP  RH WIND       PRES   REMARKS
TWIN CITIES    CLOUDY    56  45  66 W17G24    29.79R
ST PAUL        CLOUDY    56  47  71 W15G21    29.79R
CRYSTAL        CLOUDY    56  45  66 NW12      29.78R
BLAINE         CLOUDY    57  48  72 W15       29.78R
LAKEVILLE      CLOUDY    55  48  76 W10G16    29.80S
EDEN PRAIRIE   PTSUNNY   59  46  62 NW10      29.78R
SOUTH ST PAUL  CLOUDY    56  46  70 W12       29.79R
LAKE ELMO      CLOUDY    54  48  82 W8        29.79R
$$
MNZ001>005-007-008-013>017-022>024-027-028-291500-
   Northwest Minnesota

CITY           SKY/WX    TMP DP  RH WIND       PRES   REMARKS
BEMIDJI        CLOUDY    48  45  87 NW16      29.76S
HALLOCK        CLOUDY    48  46  93 NW14G23   29.83F
ROSEAU         CLOUDY    48  43  81 NW15      29.78S
WARROAD        CLOUDY    46  43  87 NW13G18   29.77R FOG
THIEF RVR FALL CLOUDY    48  44  86 NW20G29   29.81R
CROOKSTON      CLOUDY    46  46 100 NW22      29.84R
FOSSTON        CLOUDY    46  45  93 NW15      29.80F
DETROIT LAKES  LGT RAIN  48  46  93 NW14      29.83S
MOORHEAD       CLOUDY    52  48  87 NW17G23   29.86R
PARK RAPIDS    CLOUDY    51  44  77 NW15      29.77R
MAHNOMEN       CLOUDY    49  47  93 NW16G23   29.82R
$$
MNZ006-009>011-018-025>026-291500-
   North Central Minnesota

CITY           SKY/WX    TMP DP  RH WIND       PRES   REMARKS
BAUDETTE       CLOUDY    48  46  93 NW15G25   29.73R
FLAG ISLAND    CLOUDY    48  45  87 NW22      29.72S
INTL FALLS     LGT RAIN  50  47  89 NW14G21   29.67S FOG
WASKISH        CLOUDY    48  46  93 NW12G20   29.74R
BIG FORK       CLOUDY    48  46  93 W7        29.71S
LONGVILLE      CLOUDY    50  46  87 NW10G16   29.74S
GRAND RAPIDS   CLOUDY    50  46  86 NW12      29.73S
CRANE LAKE     CLOUDY    48  48 100 W6        29.66R FOG
ORR            DRIZZLE   48  46  93 NW8       29.64S
COOK           DRIZZLE   50  48  93 W12       29.67R
WALKER         CLOUDY    49  46  87 NW14G21   29.75S
$$
MNZ012-019>021-037-291500-
   Northeast Minnesota

CITY           SKY/WX    TMP DP  RH WIND       PRES   REMARKS
DULUTH         CLOUDY    53  48  83 NW14G25   29.65S
ELY            RAIN      50  48  93 W10       29.62S
HIBBING        CLOUDY    49  48  97 NW15G21   29.68S
EVELETH        DRIZZLE   50  47  88 W13G20    29.67S
DULUTH HARBOR  CLOUDY    55  50  82 W16       29.67S
TWO HARBORS    CLOUDY    55  50  82 NW7       29.62S
SILVER BAY     CLOUDY    55  50  82 W5        29.60S
GRAND MARAIS     N/A     43  43 100 CALM      29.57S
G MARAIS ARPRT CLOUDY    52  46  82 NW5       29.58S
$$
MNZ029>031-032-039>041-046>048-054>057-064-291500-
   West Central Minnesota

CITY           SKY/WX    TMP DP  RH WIND       PRES   REMARKS
FERGUS FALLS   CLOUDY    50  50 100 N16       29.84R
WHEATON        PTSUNNY   52  48  87 NW12      29.89R
MORRIS         CLOUDY    55  48  76 NW20G25   29.85R
ALEXANDRIA     LGT RAIN  51  48  89 NW14      29.83S
ELBOW LAKE     CLOUDY    51  48  90 W17G24    29.85R
WADENA         CLOUDY    52  45  76 NW15      29.79S
GLENWOOD       MOSUNNY   54  48  82 W21       29.83S
APPLETON       CLOUDY    54  48  82 NW14G22   29.87R
BENSON         CLOUDY    55  46  71 N16       29.86S
ORTONVILLE     PTSUNNY   55  46  71 NW15G22   29.87R
MADISON        CLOUDY    59  48  67 NW16G22   29.88R
WILLMAR        CLOUDY    55  48  76 NW17G24   29.85R
$$
MNZ033>034-036-042>043-049>051-058-059-291500-
   Central Minnesota

CITY           SKY/WX    TMP DP  RH WIND       PRES   REMARKS
ST CLOUD       CLOUDY    55  48  77 NW13G23   29.78R
SAUK CENTRE    CLOUDY    53  47  81 NW15G23   29.81R
PAYNESVILLE    CLOUDY    55  47  74 NW21      29.81S
AITKIN         CLOUDY    52  45  76 NW10G18   29.73R
PINE RIVER     CLOUDY    52  46  82 NW7       29.79S
BRAINERD       LGT RAIN  51  49  92 NW9       29.76R FOG
STAPLES        CLOUDY    52  46  82 NW17      29.78S
LONG PRAIRIE   CLOUDY    50  46  87 W13G20    29.80S
LITTLE FALLS   CLOUDY    52  45  76 W12G20    29.77S
LITCHFIELD     PTSUNNY   55  48  76 NW16G26   29.82R
BUFFALO        PTSUNNY   56  46  69 W14G21    29.80R
MAPLE LAKE     CLOUDY    56  49  77 W8G23     29.80S
HUTCHINSON     CLOUDY    56  48  74 W16G24    29.83R
$$
MNZ037-044-045-052-053-291500-
   East Central Minnesota

CITY           SKY/WX    TMP DP  RH WIND       PRES   REMARKS
PRINCETON      CLOUDY    55  48  76 W16       29.77R
MORA           CLOUDY    52  46  82 W10G20    29.75S
CAMBRIDGE      CLOUDY    55  46  71 W10G17    29.75R
RUSH CITY      CLOUDY    53  47  82 W5        29.75R
MOOSE LAKE     CLOUDY    54  46  76 NW8G18    29.69S
HINCKLEY       CLOUDY    54  46  76 NW9       29.73R
CLOQUET        CLOUDY    54  45  71 W9G22     29.68R
MCGREGOR       CLOUDY    50  46  87 NW9       29.72S
$$
MNZ071>073-080-081-089-090-097-098-291500-
   Southwest Minnesota

CITY           SKY/WX    TMP DP  RH WIND       PRES   REMARKS
MONTEVIDEO     CLOUDY    55  48  76 N13G21    29.86S
CANBY          CLOUDY    57  48  72 W12G23    29.90R
MARSHALL       PTSUNNY   56  47  71 NW20      29.88S
REDWOOD FALLS  PTSUNNY   57  46  66 NW17      29.85S
OLIVIA         PTSUNNY   55  48  76 NW17G26   29.84S
PIPESTONE      MOSUNNY   54  43  66 NW13G20   29.92S
WINDOM         MOSUNNY   55  46  71 W16       29.89R
WORTHINGTON    MOSUNNY   55  47  74 W17       29.92R
JACKSON        MOSUNNY   55  46  71 NW13      29.91R
TRACY          MOSUNNY   58  48  70 NW14G21   29.89S
SLAYTON        SUNNY     53  47  79 W16       29.92R
$$
MNZ065>067-074>077-082>085-091>093-291500-
   South Central Minnesota

CITY           SKY/WX    TMP DP  RH WIND       PRES   REMARKS
MANKATO        CLOUDY    56  46  69 W17       29.85R
NEW ULM        CLOUDY    55  46  71 W18       29.85R
ST JAMES       MOSUNNY   59  46  63 W18G24    29.88S
FAIRMONT       SUNNY     58  46  64 NW16G23   29.88S
GLENCOE        CLOUDY    57  50  78 W15G23    29.82R
FARIBAULT      CLOUDY    57  48  72 W13       29.83R
OWATONNA       CLOUDY    57  46  67 W17       29.84R
WASECA         CLOUDY    55  46  71 W15G22    29.86R
ALBERT LEA     CLOUDY    61  48  63 W10G18    29.86S
$$
MNZ078>079-086>088-094>096-291500-
   Southeast Minnesota

CITY           SKY/WX    TMP DP  RH WIND       PRES   REMARKS
ROCHESTER      CLOUDY    55  46  71 W17G26    29.83S
RED WING       CLOUDY    55  48  76 NW7       29.78S
STANTON        CLOUDY    56  47  73 W10       29.80S
DODGE CENTER   CLOUDY    55  45  67 W16G24    29.83S
WINONA         PTSUNNY   59  46  63 W7G18     29.80R
AUSTIN         CLOUDY    55  45  67 W15G22    29.85R
PRESTON        PTSUNNY   55  45  68 W17G25    29.84R
$$
ABBREVIATIONS USED IN REMARKS
   TC - TEMPERATURES IN CELSIUS
  WCI - WIND CHILL INDEX
   HX - HEAT INDEX
  VSB - VISIBILITY
$$




USA.gov is the U.S. government's official web portal to all federal, state and local government web resources and services.